WOLF21 Weather Reports


time (UTC)temp
F
wind
direction
speed
knots
gust
knots
rain 1hr
in
rain 24hr
in
rain mn
in
humidity
%
barometer
mb
20260509001546 58 0 0.0 0.9 0.01 0.01 0.01 82 1009.5
20260509000046 58 0 0.0 2.6 0.00 0.00 0.00 83 1009.9
20260508234539 59 0 0.0 0.0 0.00 0.00 0.00 79 1009.8
20260508233036 59 0 0.0 0.0 0.00 0.00 0.00 74 1009.7
20260508231552 61 0 0.0 0.9 0.00 0.00 0.00 74 1009.3
20260508230043 62 0 0.0 0.0 0.00 0.00 0.00 72 1009.5
20260508224601 63 0 0.0 0.9 0.00 0.00 0.00 66 1009.4
20260508223042 63 0 0.0 1.7 0.00 0.00 0.00 57 1009.4
20260508221556 64 242 0.0 2.6 0.00 0.00 0.00 54 1009.4
20260508220046 64 238 0.9 4.3 0.00 0.00 0.00 52 1009.4
20260508214547 65 250 0.0 4.3 0.00 0.00 0.00 51 1009.3
20260508213041 65 219 0.9 4.3 0.00 0.00 0.00 50 1009.3
20260508211547 65 245 1.7 7.0 0.00 0.00 0.00 50 1009.6
20260508210045 65 219 2.6 9.6 0.00 0.00 0.00 50 1009.8
20260508204537 65 213 4.3 11.3 0.00 0.00 0.00 48 1009.9
20260508203042 65 225 1.7 7.0 0.00 0.00 0.00 50 1010.1
20260508201543 65 245 2.6 7.0 0.00 0.00 0.00 50 1010.2
20260508200047 65 248 4.3 9.6 0.00 0.00 0.00 49 1010.4
20260508194536 66 238 2.6 9.6 0.00 0.00 0.00 48 1010.4
20260508193057 67 216 3.5 11.3 0.00 0.00 0.00 48 1010.5
20260508191542 67 249 5.2 10.4 0.00 0.00 0.00 49 1010.7
20260508190044 67 213 1.7 7.0 0.00 0.00 0.00 51 1011.0
20260508184542 67 226 4.3 12.2 0.00 0.00 0.00 51 1011.2
20260508183058 66 240 4.3 10.4 0.00 0.00 0.00 51 1011.4
20260508181554 65 252 3.5 10.4 0.00 0.00 0.00 52 1011.5
20260508180044 65 235 3.5 10.4 0.00 0.00 0.00 53 1011.8
20260508174542 65 277 4.3 13.0 0.00 0.00 0.00 50 1011.9
20260508173043 67 238 3.5 13.0 0.00 0.00 0.00 56 1012.2
20260508171548 66 215 4.3 10.4 0.00 0.00 0.00 51 1012.3
20260508170036 66 238 2.6 12.2 0.00 0.00 0.00 51 1012.7
20260508164544 66 225 5.2 9.6 0.00 0.00 0.00 54 1013.0
20260508163122 65 226 4.3 9.6 0.00 0.00 0.00 54 1013.1
20260508161545 64 183 2.6 8.7 0.00 0.00 0.00 55 1013.3
20260508160044 63 269 3.5 11.3 0.00 0.00 0.00 55 1013.6
20260508154546 63 244 4.3 10.4 0.00 0.00 0.00 55 1013.7
20260508153042 61 218 5.2 12.2 0.00 0.00 0.00 58 1013.7
20260508151547 61 273 3.5 9.6 0.00 0.00 0.00 56 1013.8
20260508150058 61 261 3.5 9.6 0.00 0.00 0.00 56 1013.7
20260508144544 61 186 3.5 10.4 0.00 0.00 0.00 56 1013.8
20260508143049 59 217 3.5 9.6 0.00 0.00 0.00 56 1014.1
20260508141554 59 242 4.3 12.2 0.00 0.00 0.00 55 1014.2
20260508140055 59 271 6.1 12.2 0.00 0.00 0.00 56 1014.3
20260508134539 58 302 4.3 12.2 0.00 0.00 0.00 56 1014.3
20260508133047 57 216 4.3 7.8 0.00 0.00 0.00 56 1014.3
20260508131536 56 243 3.5 6.1 0.00 0.00 0.00 60 1014.3
20260508130044 54 220 2.6 7.0 0.00 0.00 0.00 63 1014.4
20260508124541 53 186 2.6 7.8 0.00 0.00 0.00 65 1014.2
20260508123042 51 0 0.9 7.0 0.00 0.00 0.00 68 1014.2
20260508121546 50 222 2.6 5.2 0.00 0.00 0.00 68 1014.4
20260508120042 49 175 1.7 4.3 0.00 0.00 0.00 69 1014.2
20260508114545 49 223 1.7 5.2 0.00 0.00 0.00 70 1013.9
20260508113109 48 211 0.9 3.5 0.00 0.00 0.00 71 1013.8
20260508111542 47 215 0.9 3.5 0.00 0.00 0.00 72 1013.9
20260508110043 47 224 0.9 3.5 0.00 0.00 0.00 72 1013.7
20260508104550 46 203 0.9 4.3 0.00 0.00 0.00 73 1013.6
20260508103045 46 217 0.9 2.6 0.00 0.00 0.00 73 1013.6
20260508101547 45 211 0.0 1.7 0.00 0.00 0.00 74 1013.5
20260508100044 45 0 0.0 0.9 0.00 0.00 0.00 75 1013.6
20260508094542 45 0 0.0 2.6 0.00 0.00 0.00 74 1013.5
20260508093040 45 201 0.9 4.3 0.00 0.00 0.00 73 1013.5
20260508091545 45 202 0.0 2.6 0.00 0.00 0.00 73 1013.5
20260508090050 45 0 0.0 0.0 0.00 0.00 0.00 72 1013.5
20260508084541 46 0 0.0 2.6 0.00 0.00 0.00 70 1013.5
20260508083042 46 0 0.9 3.5 0.00 0.00 0.00 69 1013.5
20260508081540 46 205 0.9 2.6 0.00 0.00 0.00 69 1013.4
20260508080036 46 200 0.0 2.6 0.00 0.00 0.00 68 1013.4
20260508074545 47 0 0.0 4.3 0.00 0.00 0.00 66 1013.4
20260508073043 48 215 0.9 4.3 0.00 0.00 0.00 65 1013.5
20260508071542 48 213 1.7 3.5 0.00 0.00 0.00 65 1013.6
20260508070041 48 184 1.7 5.2 0.00 0.00 0.00 64 1013.6
20260508064556 48 202 1.7 5.2 0.00 0.00 0.00 64 1013.9
20260508063046 48 200 2.6 4.3 0.00 0.00 0.00 64 1013.9
20260508061554 48 197 0.9 4.3 0.00 0.00 0.00 65 1013.9
20260508060048 47 207 0.9 4.3 0.00 0.00 0.00 66 1013.9
20260508054605 47 223 0.9 3.5 0.00 0.00 0.00 67 1014.0
20260508053040 47 0 0.0 2.6 0.00 0.00 0.00 68 1014.0
20260508051544 48 0 0.0 3.5 0.00 0.00 0.00 68 1014.1
20260508050046 48 175 0.0 2.6 0.00 0.00 0.00 68 1014.2
20260508044544 47 0 0.0 0.9 0.00 0.00 0.00 69 1014.2
20260508043049 48 0 0.0 1.7 0.00 0.00 0.00 68 1014.0
20260508041540 48 0 0.0 0.9 0.00 0.00 0.00 68 1014.1
20260508040045 48 0 0.0 1.7 0.00 0.00 0.00 68 1014.1
20260508034545 48 209 0.9 2.6 0.00 0.00 0.00 66 1014.1
20260508033044 49 0 0.9 2.6 0.00 0.00 0.00 67 1014.0
20260508031551 49 0 0.0 0.0 0.00 0.00 0.00 66 1014.1
20260508030041 48 0 0.9 2.6 0.00 0.00 0.00 69 1013.8
20260508024535 47 0 0.0 0.0 0.00 0.00 0.00 71 1013.9
20260508023045 47 0 0.0 0.9 0.00 0.00 0.00 72 1014.0
20260508021542 48 0 0.0 0.0 0.00 0.00 0.00 67 1013.8
20260508020047 49 0 0.0 0.0 0.00 0.00 0.00 67 1014.0
20260508014544 49 0 0.0 0.0 0.00 0.00 0.00 66 1014.0
20260508013041 50 0 0.0 0.0 0.00 0.00 0.00 60 1014.0
20260508011546 51 0 0.0 0.9 0.00 0.00 0.00 56 1013.9
20260508010043 52 0 0.0 0.9 0.00 0.00 0.00 54 1014.0
20260508004544 53 0 0.0 0.9 0.00 0.00 0.00 54 1013.9
20260508003043 54 248 0.0 1.7 0.00 0.00 0.00 51 1013.8